Retour au catalogue

SL-16 DEB

ActifLEO
NORAD 22445·DEBRIS·🇷🇺 Russia

Lancé Dec 25, 1992 depuis Baikonur Cosmodrome

Loading…

Prochains Passages (prochaines 24 heures)

TLE

FraisSource: Space-Track

Époque: Sep 14, 2026, 04:28 UTC

1 22445U 92093EN  26257.18619192  .00000736  00000-0  38817-3 0  9995
2 22445  71.2878 178.6274 0073444  43.2443 317.4415 14.15632716730998

Suivez SL-16 DEB en temps réel avec AllMySat

Download on the App Store